Weather History for Kecskemet, Hungary

Change the Weather History Date:

Tuesday, October 22, 2013

  Actual Average (LHBP) Record (LHBP)
Temperature  
Mean Temperature 60 °F -  
Max Temperature 71 °F 57 °F 69 °F (2012)
Min Temperature 48 °F 39 °F 26 °F (1997)
Degree Days  
Heating Degree Days 6    
Growing Degree Days 10 (Base 50)    
Moisture  
Dew Point 53 °F    
Average Humidity 81    
Maximum Humidity 100    
Minimum Humidity 53    
Precipitation  
Precipitation 0.00 in - - ()
Sea Level Pressure  
Sea Level Pressure 30.14 in    
Wind  
Wind Speed 4 mph ()    
Max Wind Speed 9 mph    
Max Gust Speed -    
Visibility 4.2 miles    
Events Fog    
Averages and records for this station are not official NWS values.
T = Trace of Precipitation, MM = Missing Value Source: Averaged Metar Reports

Daily Weather History Graph

Daily Weather History Graph

Search for Another Location

Airport:

Trip Planner

Search our weather history database for the weather conditions in past years. The results will help you decide how hot, cold, wet, or windy it might be!

Date:

Astronomy

Oct. 22, 2013 Rise Set
Actual Time 7:08 AM CEST 5:41 PM CEST
Civil Twilight 6:37 AM CEST 6:12 PM CEST
Nautical Twilight 6:02 AM CEST 6:47 PM CEST
Astronomical Twilight 5:27 AM CEST 7:22 PM CEST
Moon 7:56 PM CEST (10/22) 10:31 AM CEST (10/22)
Length of Visible Light 11h 34m
Length of Day
10h 32m
Waning Gibbous, 88% of the Moon is Illuminated
Oct 22
Waning Gibbous
Oct 27
Last Quarter
Nov 3
New
Nov 10
First Quarter
Nov 17
Full

Hourly Weather History & Observations

Time (CEST) Temp. Dew Point Humidity Pressure Visibility Wind Dir Wind Speed Gust Speed Precip Events Conditions
12:15 AM 51.8 °F 50.0 °F 94% 30.15 in 4.3 mi SSE 2.2 mph - N/A   Unknown
12:45 AM 51.8 °F 50.0 °F 94% 30.15 in 3.7 mi SSW 4.5 mph - N/A   Unknown
1:15 AM 51.8 °F 50.0 °F 94% 30.15 in 3.1 mi South 4.5 mph - N/A   Partly Cloudy
1:45 AM 51.8 °F 50.0 °F 94% 30.15 in 3.7 mi SSW 2.2 mph - N/A   Partly Cloudy
2:15 AM 50.0 °F 50.0 °F 100% 30.15 in 3.7 mi Calm Calm - N/A   Partly Cloudy
2:45 AM 50.0 °F 50.0 °F 100% 30.15 in 3.7 mi South 4.5 mph - N/A   Partly Cloudy
3:15 AM 50.0 °F 48.2 °F 94% 30.15 in 3.1 mi SSW 2.2 mph - N/A   Partly Cloudy
3:45 AM - - N/A% - 1.9 mi South 4.5 mph - N/A Fog Fog
4:14 AM 48.2 °F 48.2 °F 100% 30.15 in 0.9 mi SSW 2.2 mph - N/A   Partly Cloudy
4:15 AM 48.2 °F 48.2 °F 100% 30.15 in 0.9 mi SSW 2.2 mph - N/A   Partly Cloudy
4:45 AM 50.0 °F 48.2 °F 94% 30.15 in 0.5 mi SSE 2.2 mph - N/A Fog Fog
5:15 AM 50.0 °F 48.2 °F 94% 30.15 in 0.5 mi SSE 2.2 mph - N/A Fog Fog
5:45 AM 48.2 °F 48.2 °F 100% 30.15 in 0.5 mi SE 2.2 mph - N/A Fog Fog
6:15 AM 50.0 °F 48.2 °F 94% 30.15 in 0.5 mi SSE 2.2 mph - N/A Fog Fog
6:34 AM 51.8 °F 50.0 °F 94% 30.15 in 1.9 mi SSE 2.2 mph - N/A   Partly Cloudy
6:45 AM - - N/A% - 3.1 mi South 4.5 mph - N/A   Mostly Cloudy
7:15 AM 51.8 °F 50.0 °F 94% 30.15 in 1.9 mi SSE 2.2 mph - N/A   Scattered Clouds
7:45 AM 51.8 °F 50.0 °F 94% 30.15 in 1.9 mi South 4.5 mph - N/A   Scattered Clouds
8:15 AM 51.8 °F 50.0 °F 94% 30.15 in 1.9 mi SSE 4.5 mph - N/A   Scattered Clouds
8:45 AM 53.6 °F 51.8 °F 94% 30.15 in 2.5 mi South 4.5 mph - N/A   Scattered Clouds
9:05 AM 55.4 °F 53.6 °F 94% 30.15 in 3.1 mi SSE 6.7 mph - N/A   Scattered Clouds
9:15 AM 55.4 °F 53.6 °F 94% 30.15 in 4.3 mi South 4.5 mph - N/A   Unknown
9:45 AM - - N/A% - 5.0 mi South 6.7 mph - N/A   Mostly Cloudy
10:15 AM 62.6 °F 55.4 °F 77% 30.15 in 6.2 mi South 6.7 mph - N/A   Scattered Clouds
10:45 AM 64.4 °F 57.2 °F 77% 30.15 in 6.2 mi South 6.7 mph - N/A   Mostly Cloudy
11:15 AM 66.2 °F 57.2 °F 73% 30.15 in 6.2 mi SSE 6.7 mph - N/A   Mostly Cloudy
11:45 AM 66.2 °F 57.2 °F 73% 30.15 in 6.2 mi SSE 4.5 mph - N/A   Mostly Cloudy
12:15 PM 66.2 °F 57.2 °F 73% 30.15 in 6.2 mi SSE 4.5 mph - N/A   Mostly Cloudy
12:45 PM - - N/A% - 6.2 mi South 8.9 mph - N/A   Mostly Cloudy
1:15 PM 68.0 °F 55.4 °F 64% 30.15 in 6.2 mi SSE 8.9 mph - N/A   Mostly Cloudy
1:45 PM 68.0 °F 55.4 °F 64% 30.12 in 6.2 mi SSE 8.9 mph - N/A   Mostly Cloudy
2:15 PM 69.8 °F 55.4 °F 60% 30.12 in 6.2 mi SSE 8.9 mph - N/A   Mostly Cloudy
2:45 PM 69.8 °F 55.4 °F 60% 30.12 in 6.2 mi SSE 6.7 mph - N/A   Mostly Cloudy
3:15 PM 71.6 °F 53.6 °F 53% 30.12 in 6.2 mi SSE 8.9 mph - N/A   Mostly Cloudy
3:45 PM - - N/A% - 6.2 mi SSE 8.9 mph - N/A   Mostly Cloudy
4:15 PM 69.8 °F 55.4 °F 60% 30.12 in 6.2 mi SSE 6.7 mph - N/A   Mostly Cloudy
4:45 PM 69.8 °F 55.4 °F 60% 30.12 in 6.2 mi SSE 6.7 mph - N/A   Mostly Cloudy
5:15 PM 68.0 °F 55.4 °F 64% 30.12 in 6.2 mi SSE 6.7 mph - N/A   Mostly Cloudy
5:45 PM 68.0 °F 55.4 °F 64% 30.12 in 6.2 mi SSE 8.9 mph - N/A   Mostly Cloudy
6:15 PM 66.2 °F 57.2 °F 73% 30.12 in 6.2 mi SSE 6.7 mph - N/A   Mostly Cloudy
6:45 PM - - N/A% - 6.2 mi SE 6.7 mph - N/A   Mostly Cloudy
7:15 PM 64.4 °F 55.4 °F 73% 30.12 in - SSE 6.7 mph - N/A   Clear
7:45 PM 64.4 °F 55.4 °F 73% 30.12 in - SSE 4.5 mph - N/A   Clear
8:15 PM 64.4 °F 55.4 °F 73% 30.12 in - ESE 4.5 mph - N/A   Clear
8:45 PM 64.4 °F 55.4 °F 73% 30.12 in - SE 4.5 mph - N/A   Clear
9:15 PM 64.4 °F 55.4 °F 73% 30.12 in - SE 4.5 mph - N/A   Clear
9:45 PM - - N/A% - 1.4 mi SE 6.7 mph - N/A   Clear
10:15 PM 66.2 °F 57.2 °F 73% 30.12 in 6.2 mi SE 6.7 mph - N/A   Mostly Cloudy
10:45 PM 66.2 °F 57.2 °F 73% 30.12 in 6.2 mi SE 8.9 mph - N/A   Mostly Cloudy
11:15 PM 64.4 °F 57.2 °F 77% 30.12 in 6.2 mi SSE 8.9 mph - N/A   Mostly Cloudy
11:45 PM 62.6 °F 57.2 °F 82% 30.12 in - SSE 6.7 mph - N/A   Clear